Regional Weather Roundup
Issued by NWS

Home | Current Version | Previous Version | Graphics & Text | Print | Product List | Glossary Off
Versions: 1 2 3 4 5 6 7 8 9 10 11 12 13 14 15 16 17 18 19 20 21 22 23 24 25 26 27 28 29 30 31 32 33 34 35 36 37 38 39 40 41 42 43 44 45 46 47 48 49 50

000
ASUS43 KDMX 240508
RWRIA

WEATHER ROUNDUP FOR IOWA
NATIONAL WEATHER SERVICE DES MOINES IA
1200 AM CDT WED AUG 24 2016

NOTE: "FAIR" INDICATES FEW OR NO CLOUDS BELOW 12,000 FEET WITH NO
SIGNIFICANT WEATHER AND/OR OBSTRUCTIONS TO VISIBILITY.

* - THESE STATIONS ARE NOT NWS STATIONS...THUS NOT UNDER NWS
QUALITY CONTROL.  THEY ALSO DO NOT REPORT WEATHER SUCH
AS PRECIPITATION OR FOG.

IAZ001>003-012>014-020>022-031>034-043>046-240600-
   NORTHWEST IOWA

CITY           SKY/WX    TMP DP  RH WIND       PRES   REMARKS
CARROLL *      CLOUDY    75  73  94 S8        29.81F
CHEROKEE *     CLOUDY    70  66  88 S8        29.84R
DENISON *      CLOUDY    73  72  94 S9        29.78F
LE MARS *      CLOUDY    70  64  83 SW5       29.82F
ORANGE CITY *  CLOUDY    70  66  88 SW7       29.82F
SHELDON *      CLOUDY    72  66  83 SW8       29.81S
SIOUX CITY     CLOUDY    71  63  75 S6        29.81F
SPENCER        CLOUDY    71  69  93 SW6       29.82F FOG
STORM LAKE *   CLOUDY    72  66  83 SW8       29.84F
$$

IAZ055>058-069>071-079>083-090>094-240600-
   SOUTHWEST IOWA

CITY           SKY/WX    TMP DP  RH WIND       PRES   REMARKS
ATLANTIC *     RAIN      68  68 100 SW9       29.86R
AUDUBON *      CLOUDY    75  72  88 S9G16     29.84F
CLARINDA *       N/A     77  73  88 MISG      29.86F
COUNCIL BLFS * CLOUDY    66  66 100 S12       29.85F
CRESTON *      CLOUDY    75  73  94 S14G21    29.87F
HARLAN  *      CLOUDY    70  70 100 S14       29.86F
RED OAK *      HVY RAIN  66  66 100 SW12G17   29.90F
SHENANDOAH *   HVY RAIN  73 -35   1 N39G55    29.93R
$$

IAZ047>049-059>061-072>074-084-240600-
   CENTRAL IOWA

CITY           SKY/WX    TMP DP  RH WIND       PRES   REMARKS
AMES           CLOUDY    76  75  97 S12       29.86F
ANKENY *         N/A    N/A N/A N/A MISG        N/A
BOONE *        CLOUDY    75  73  94 S8G16     29.86F
CHARITON *       N/A     75  73  94 MISG      29.89F
DES MOINES     CLOUDY    77  73  87 S15G23    29.85F
GRINNELL*      CLOUDY    74  70  88 SE13G18   29.91F
KNOXVILLE *    MOCLDY    75  72  88 S12G20    29.88F
MARSHALLTOWN   CLOUDY    75  73  93 S12       29.88F
NEWTON *       CLOUDY    75  73  94 S14G20    29.88F
PELLA *        CLOUDY    75  71  89 S10       29.91F
PERRY *          N/A     76  75  96 S9        29.84S
$$

IAZ004>006-015-016-023>025-035-036-240600-
   NORTH CENTRAL IOWA

CITY           SKY/WX    TMP DP  RH WIND       PRES   REMARKS
ALGONA *       CLOUDY    73  72  94 S10       29.83F
ESTHERVILLE    CLOUDY    71  71 100 S9        29.81F FOG
FORT DODGE *   CLOUDY    75  72  88 S9        29.82F
MASON CITY     CLOUDY    73  72  96 SW6       29.89R
FOREST CITY *    N/A    N/A N/A N/A MISG        N/A
WEBSTER CITY * CLOUDY    75  73  94 S15       29.82F
IOWA FALLS *   CLOUDY    75  72  88 S16       29.88F
$$

IAZ007>011-017>019-026>030-037>042-050>054-066-240600-
   NORTHEAST IOWA

CITY           SKY/WX    TMP DP  RH WIND       PRES   REMARKS
CEDAR RAPIDS   CLOUDY    73  72  96 S12G22    29.95S
CHARLES CITY * CLOUDY    70  70 100 SE10      29.89S
CLINTON *      CLOUDY    72  68  87 S15       30.01F
DECORAH *      LGT RAIN  66  66 100 SE7       29.91F
DUBUQUE        CLOUDY    71  68  90 S18G28    29.99S
MONTICELLO *   CLOUDY    73  70  88 S10G17    29.98R
OELWEIN *      CLOUDY    73  70  88 S17G23    29.92F
WATERLOO       CLOUDY    74  70  87 S17       29.88F
$$

IAZ064-065-067-068-078-240600-
   EAST CENTRAL IOWA

CITY           SKY/WX    TMP DP  RH WIND       PRES   REMARKS
DAVENPORT      MOCLDY    72  67  84 S14G21    30.01F
IOWA CITY      CLOUDY    73  70  90 S14G21    29.97F
MT. PLEASANT * CLOUDY    74  74  98 S9        29.99F
MUSCATINE *    CLOUDY    73  70  88 S14       29.99S
QUAD CITIES    CLOUDY    73  67  81 S10G20    30.00F
$$

IAZ062-063-075>077-085>089-095>099-240600-
   SOUTHEAST IOWA

CITY           SKY/WX    TMP DP  RH WIND       PRES   REMARKS
BURLINGTON     CLOUDY    72  70  93 S9        30.01F
FAIRFIELD *    CLOUDY    73  70  88 S15       29.95F
FORT MADISON * CLOUDY    72  70  94 S12       30.01F
KEOKUK *       CLOUDY    73  70  88 SE10G16   30.00F
OSKALOOSA *    CLOUDY    73  71  95 S10       29.93F
CENTERVILLE *  CLOUDY    73  72  94 S8        29.95F
OTTUMWA        CLOUDY    74  70  87 S13       29.93F
WASHINGTON *   CLOUDY    73  72  94 S14       29.97F
$$

ABBREVIATIONS USED IN REMARKS
   TC - TEMPERATURES IN CELSIUS
  WCI - WIND CHILL INDEX
   HX - HEAT INDEX
  VSB - VISIBILITY
$$





USA.gov is the U.S. government's official web portal to all federal, state and local government web resources and services.